This demonstration page uses our WeatherBlox Daily Observations layout. Learn more.

Hourly Observations for August 2, 2019

Temp ( °F °C ) Dew Point ( °F °C ) Humidity (%) Winds ( mph kmh ) Pressure ( in mb ) Visibility ( mi km ) Precip ( " mm )
12:15 am 00:15 Mostly Cloudy 72 22.2 69 20.5 90 90 ESE 9 15 30 1016 10 16.09344 0 0
12:35 am 00:35 Cloudy 72 22.2 69 20.5 90 90 ESE 9 15 30 1016 10 16.09344 0 0
12:55 am 00:55 Cloudy 72 22.1 69 20.5 91 91 ESE 9 15 30 1016 10 16.09344 0 0
1:15 am 01:15 Partly Cloudy 72 22 69 20.5 91 91 SE 8 13 30 1016 10 16.09344 0 0
1:35 am 01:35 Mostly Cloudy 71 21.5 69 20.5 94 94 ESE 8 13 30 1016 10 16.09344 0 0
1:55 am 01:55 Mostly Cloudy with Light Rain 71 21.5 69 20.6 95 95 ESE 6 9 29.97 1015 10 16.09344 0 0
2:15 am 02:15 Mostly Cloudy 70 21.2 69 20.6 96 96 E 8 13 29.97 1015 10 16.09344 0 0
2:35 am 02:35 Mostly Cloudy 70 21.2 69 20.7 97 97 E 6 9 29.97 1015 10 16.09344 0 0
2:55 am 02:55 Cloudy with Nearby Thunderstorms 70 21.3 69 20.8 97 97 ESE 3 6 30 1016 10 16.09344 0 0
3:15 am 03:15 Cloudy with Thunderstorms 70 21.3 70 20.9 98 98 ENE 3 6 29.97 1015 10 16.09344 0 0
3:35 am 03:35 Cloudy 70 21.2 70 20.9 98 98 E 7 11 29.97 1015 10 16.09344 0 0
3:55 am 03:55 Cloudy with Nearby Thunderstorms 70 21.2 70 21 99 99 E 7 11 29.97 1015 10 16.09344 0 0
4:15 am 04:15 Cloudy with Nearby Thunderstorms 70 21 70 21 100 100 E 9 15 29.94 1014 10 16.09344 0 0
4:35 am 04:35 Cloudy 70 21.1 70 21 99 99 SE 5 7 29.97 1015 10 16.09344 0 0
4:55 am 04:55 Cloudy 70 21.2 70 21.2 100 100 ESE 10 17 29.97 1015 10 16.09344 0 0
5:15 am 05:15 Cloudy 70 21.2 70 21.2 100 100 SE 12 19 29.97 1015 10 16.09344 0 0
5:35 am 05:35 Cloudy 70 21.3 70 21.2 99 99 SE 7 11 29.94 1014 10 16.09344 0 0
5:55 am 05:55 Cloudy 70 21.2 70 21.1 99 99 SE 5 7 29.97 1015 10 16.09344 0 0
6:15 am 06:15 Cloudy 70 21.3 70 21.2 99 99 SSE 3 6 29.97 1015 10 16.09344 0 0
6:35 am 06:35 Cloudy with Light Rain 70 21.3 70 21.2 99 99 SSE 5 7 29.97 1015 10 16.09344 0 0
6:55 am 06:55 Cloudy with Light Rain 70 21.2 70 21.2 100 100 SSE 8 13 29.97 1015 10 16.09344 0 0
7:15 am 07:15 Cloudy 70 21.2 70 21.2 100 100 SE 6 9 29.97 1015 10 16.09344 0 0
7:35 am 07:35 Cloudy 70 21.2 70 21.2 100 100 SE 3 6 30 1016 10 16.09344 0 0
7:55 am 07:55 Cloudy 70 21.2 70 21.2 100 100 SE 3 6 30 1016 10 16.09344 0 0
8:15 am 08:15 Cloudy 70 21.3 70 21.3 100 100 SSE 5 7 30 1016 10 16.09344 0 0
8:35 am 08:35 Cloudy 71 21.5 71 21.5 100 100 SSE 6 9 30 1016 10 16.09344 0 0
8:55 am 08:55 Cloudy 71 21.5 71 21.4 99 99 SSE 5 7 30 1016 10 16.09344 0 0
9:15 am 09:15 Cloudy 70 21.3 70 21.1 99 99 SE 9 15 30 1016 10 16.09344 0 0
9:35 am 09:35 Cloudy 70 21.2 70 21 99 99 SE 6 9 30 1016 10 16.09344 0 0
9:55 am 09:55 Cloudy 70 21.1 69 20.8 98 98 SE 6 9 30 1016 10 16.09344 0 0
10:15 am 10:15 Cloudy 71 21.6 70 21 96 96 SSE 6 9 30 1016 10 16.09344 0 0
10:35 am 10:35 Cloudy 71 21.7 70 21 96 96 SE 7 11 30 1016 10 16.09344 0 0
10:55 am 10:55 Cloudy 71 21.6 69 20.7 95 95 SSE 10 17 30 1016 10 16.09344 0 0
11:15 am 11:15 Cloudy with Nearby Thunderstorms 72 22.3 70 20.9 92 92 SSE 13 20 30 1016 10 16.09344 0 0
11:35 am 11:35 Cloudy 71 21.9 69 20.5 92 92 SSE 6 9 30 1016 10 16.09344 0 0
11:55 am 11:55 Cloudy 72 22.3 69 20.7 91 91 SE 8 13 30 1016 10 16.09344 0 0
12:15 pm 12:15 Cloudy 74 23.1 69 20.8 87 87 SE 12 19 30 1016 10 16.09344 0 0
12:35 pm 12:35 Cloudy 74 23.5 69 20.7 84 84 SE 10 17 30 1016 10 16.09344 0 0
12:55 pm 12:55 Mostly Cloudy 75 24.1 68 20.1 78 78 SSE 16 26 29.97 1015 10 16.09344 0 0
1:15 pm 13:15 Partly Cloudy 76 24.5 68 20 76 76 S 15 24 29.97 1015 10 16.09344 0 0
1:35 pm 13:35 Mostly Cloudy 76 24.6 67 19.7 74 74 SSE 10 17 29.97 1015 10 16.09344 0 0
1:55 pm 13:55 Cloudy 76 24.2 68 19.9 77 77 SSE 10 17 29.97 1015 10 16.09344 0 0
2:15 pm 14:15 Cloudy 76 24.5 68 20 76 76 S 12 19 29.94 1014 10 16.09344 0 0
2:35 pm 14:35 Cloudy 77 25 69 20.5 76 76 S 7 11 29.94 1014 10 16.09344 0 0
2:55 pm 14:55 Cloudy 77 25 69 20.7 77 77 SSW 7 11 29.94 1014 10 16.09344 0 0
3:15 pm 15:15 Cloudy 77 25 69 20.8 78 78 SSW 5 7 29.94 1014 10 16.09344 0 0
3:35 pm 15:35 Cloudy 77 25.1 70 21.1 79 79 SSW 6 9 29.94 1014 10 16.09344 0 0
3:55 pm 15:55 Cloudy 77 25 70 21.1 79 79 S 3 6 29.94 1014 10 16.09344 0 0
4:15 pm 16:15 Cloudy 77 24.9 69 20.7 78 78 Calm 29.94 1014 10 16.09344 0 0
4:35 pm 16:35 Cloudy 77 25 70 21 79 79 SE 3 6 29.94 1014 10 16.09344 0 0
4:55 pm 16:55 Cloudy 78 25.4 70 21.3 78 78 ESE 5 7 29.94 1014 10 16.09344 0 0
5:15 pm 17:15 Cloudy 78 25.3 70 21.3 79 79 ESE 7 11 29.94 1014 10 16.09344 0 0
5:35 pm 17:35 Mostly Cloudy 76 24.5 71 21.7 84 84 ESE 9 15 29.94 1014 10 16.09344 0 0
5:55 pm 17:55 Mostly Cloudy 76 24.6 71 21.8 84 84 ESE 7 11 29.94 1014 10 16.09344 0 0
6:15 pm 18:15 Cloudy 76 24.3 71 21.8 86 86 ESE 8 13 29.94 1014 10 16.09344 0 0
6:35 pm 18:35 Cloudy 76 24.5 72 22 86 86 ESE 8 13 29.91 1013 10 16.09344 0 0
6:55 pm 18:55 Cloudy 76 24.4 71 21.9 86 86 ESE 7 11 29.94 1014 10 16.09344 0 0
7:15 pm 19:15 Cloudy 76 24.5 72 22 86 86 ESE 10 17 29.94 1014 10 16.09344 0 0
7:35 pm 19:35 Cloudy 75 23.9 71 21.8 88 88 ESE 9 15 29.94 1014 10 16.09344 0 0
7:55 pm 19:55 Mostly Cloudy 74 23.5 71 21.6 89 89 ESE 8 13 29.97 1015 10 16.09344 0 0
8:15 pm 20:15 Mostly Cloudy 73 23 71 21.6 92 92 E 6 9 29.97 1015 10 16.09344 0 0
8:35 pm 20:35 Mostly Cloudy 73 22.8 70 21.3 91 91 ESE 7 11 30 1016 10 16.09344 0 0
8:55 pm 20:55 Partly Cloudy 73 22.5 70 21.3 93 93 ESE 7 11 29.97 1015 10 16.09344 0 0
9:15 pm 21:15 Clear 72 22.2 70 21.2 94 94 SSE 5 7 29.97 1015 10 16.09344 0 0
9:35 pm 21:35 Clear 72 22 70 21.1 95 95 SSE 12 19 29.94 1014 10 16.09344 0 0
9:55 pm 21:55 Clear 71 21.6 70 21 96 96 SE 10 17 29.97 1015 10 16.09344 0 0
10:15 pm 22:15 Clear 71 21.5 70 21 97 97 S 9 15 29.97 1015 10 16.09344 0 0
10:35 pm 22:35 Clear 71 21.5 70 21 97 97 S 7 11 29.97 1015 10 16.09344 0 0
10:55 pm 22:55 Partly Cloudy 70 21.2 69 20.8 98 98 Calm 29.97 1015 10 16.09344 0 0
11:15 pm 23:15 Partly Cloudy 69 20.7 69 20.4 98 98 ESE 3 6 30 1016 10 16.09344 0 0
11:35 pm 23:35 Mostly Cloudy 69 20.7 69 20.7 100 100 E 3 6 30 1016 10 16.09344 0 0
11:55 pm 23:55 Cloudy 70 21 70 21 100 100 Calm 30.03 1017 10 16.09344 0 0

Powered by AerisWeather